When you browse on this site, cookies collect data to enhance your experience and personalize the content and advertising you see.
Visit our Privacy Policy to learn more. By continuing to use the site, you agree to this use of cookies and data.
  • In Latvia
  • List of Countries
  • For 7 days
  • Water Temperature
  • Weather Map
  • Weather Widgets
  • user-avatar
    Login

    Hourly Weather Jalalabad

    Today, 1 April, Wednesday

    Time Temperature Precipitation Wind Pressure Humidity
    00:00 +11°C° 0 mm 0 mps 709 mmHg 92%
    01:00 +11°C° 0 mm 0 mps 709 mmHg 92%
    02:00 +11°C° 0 mm 0 mps 709 mmHg 92%
    03:00 +11°C° 0 mm 0 mps 709 mmHg 92%
    04:00 +11°C° 0 mm 0 mps 709 mmHg 93%
    05:00 +10°C° 0 mm 0 mps 709 mmHg 93%
    06:00 +11°C° 0 mm 0 mps 709 mmHg 89%
    07:00 +12°C° 0 mm 0 mps 710 mmHg 85%
    08:00 +13°C° 0 mm 0 mps 710 mmHg 81%
    09:00 +15°C° 0 mm 1 mps 710 mmHg 75%
    10:00 +18°C° 0 mm 1 mps 710 mmHg 69%
    11:00 +19°C° 0 mm 1 mps 710 mmHg 62%
    12:00 +20°C° 0.1 mm 1 mps 709 mmHg 58%
    13:00 +21°C° 0.1 mm 1 mps 709 mmHg 53%
    14:00 +22°C° 0.1 mm 1 mps 708 mmHg 48%
    15:00 +22°C° 0.1 mm 1 mps 708 mmHg 46%
    16:00 +22°C° 0.1 mm 1 mps 708 mmHg 44%
    17:00 +21°C° 0 mm 2 mps 708 mmHg 44%
    18:00 +20°C° 0.1 mm 2 mps 708 mmHg 48%
    19:00 +21°C° 0.1 mm 1 mps 709 mmHg 53%
    20:00 +20°C° 0.1 mm 1 mps 709 mmHg 57%
    21:00 +19°C° 0.1 mm 1 mps 710 mmHg 59%
    22:00 +17°C° 0.1 mm 0 mps 710 mmHg 61%
    23:00 +16°C° 0.1 mm 0 mps 710 mmHg 63%

    Tomorrow, 2 April, Thursday

    Time Temperature Precipitation Wind Pressure Humidity
    00:00 +16°C° 0 mm 0 mps 710 mmHg 63%
    01:00 +15°C° 0 mm 0 mps 710 mmHg 62%
    02:00 +16°C° 0 mm 1 mps 710 mmHg 62%
    03:00 +14°C° 0 mm 0 mps 710 mmHg 61%
    04:00 +14°C° 0 mm 0 mps 710 mmHg 61%
    05:00 +13°C° 0 mm 0 mps 710 mmHg 60%
    06:00 +15°C° 0 mm 1 mps 710 mmHg 54%
    07:00 +16°C° 0 mm 1 mps 711 mmHg 47%
    08:00 +18°C° 0 mm 1 mps 711 mmHg 41%
    09:00 +20°C° 0 mm 1 mps 711 mmHg 35%
    10:00 +21°C° 0 mm 1 mps 710 mmHg 30%
    11:00 +22°C° 0 mm 1 mps 710 mmHg 25%
    12:00 +23°C° 0 mm 1 mps 710 mmHg 23%
    13:00 +24°C° 0 mm 1 mps 710 mmHg 21%
    14:00 +25°C° 0 mm 1 mps 709 mmHg 19%
    15:00 +25°C° 0 mm 1 mps 709 mmHg 19%
    16:00 +25°C° 0 mm 1 mps 709 mmHg 19%
    17:00 +25°C° 0 mm 1 mps 709 mmHg 19%
    18:00 +24°C° 0 mm 1 mps 709 mmHg 26%
    19:00 +22°C° 0 mm 1 mps 710 mmHg 32%
    20:00 +19°C° 0 mm 0 mps 710 mmHg 38%
    21:00 +19°C° 0 mm 0 mps 710 mmHg 39%
    22:00 +18°C° 0 mm 0 mps 710 mmHg 40%
    23:00 +17°C° 0 mm 0 mps 710 mmHg 41%

    Day after tomorrow, 3 April, Friday

    Time Temperature Precipitation Wind Pressure Humidity
    00:00 +17°C° 0 mm 0 mps 710 mmHg 42%
    01:00 +17°C° 0 mm 0 mps 710 mmHg 42%
    02:00 +16°C° 0 mm 0 mps 709 mmHg 42%
    03:00 +16°C° 0 mm 0 mps 709 mmHg 42%
    04:00 +15°C° 0 mm 0 mps 709 mmHg 42%
    05:00 +15°C° 0 mm 0 mps 709 mmHg 42%
    06:00 +16°C° 0 mm 0 mps 709 mmHg 37%
    07:00 +18°C° 0 mm 0 mps 710 mmHg 33%
    08:00 +19°C° 0 mm 0 mps 710 mmHg 29%
    09:00 +20°C° 0 mm 0 mps 710 mmHg 27%
    10:00 +23°C° 0 mm 1 mps 710 mmHg 24%
    11:00 +24°C° 0 mm 1 mps 710 mmHg 22%
    12:00 +25°C° 0 mm 1 mps 710 mmHg 21%
    13:00 +26°C° 0 mm 1 mps 710 mmHg 20%
    14:00 +26°C° 0 mm 1 mps 710 mmHg 18%
    15:00 +26°C° 0 mm 1 mps 709 mmHg 18%
    16:00 +27°C° 0 mm 1 mps 709 mmHg 18%
    17:00 +27°C° 0 mm 1 mps 709 mmHg 18%
    18:00 +25°C° 0 mm 1 mps 709 mmHg 25%
    19:00 +24°C° 0 mm 1 mps 710 mmHg 32%
    20:00 +20°C° 0 mm 0 mps 710 mmHg 39%
    21:00 +20°C° 0 mm 0 mps 711 mmHg 40%
    22:00 +19°C° 0 mm 0 mps 711 mmHg 40%
    23:00 +19°C° 0 mm 0 mps 711 mmHg 41%

    4 April, Saturday

    Time Temperature Precipitation Wind Pressure Humidity
    00:00 +18°C° 0 mm 0 mps 710 mmHg 41%
    01:00 +18°C° 0 mm 0 mps 710 mmHg 41%
    02:00 +18°C° 0 mm 0 mps 710 mmHg 40%
    03:00 +17°C° 0 mm 0 mps 710 mmHg 41%
    04:00 +17°C° 0 mm 0 mps 710 mmHg 41%
    05:00 +16°C° 0 mm 0 mps 709 mmHg 41%
    06:00 +18°C° 0 mm 0 mps 710 mmHg 37%
    07:00 +20°C° 0 mm 0 mps 710 mmHg 32%
    08:00 +21°C° 0 mm 0 mps 711 mmHg 28%
    09:00 +24°C° 0 mm 1 mps 711 mmHg 26%
    10:00 +25°C° 0 mm 1 mps 711 mmHg 24%
    11:00 +26°C° 0 mm 1 mps 711 mmHg 22%
    12:00 +27°C° 0 mm 1 mps 710 mmHg 20%
    13:00 +28°C° 0 mm 1 mps 710 mmHg 19%
    14:00 +28°C° 0 mm 1 mps 710 mmHg 18%
    15:00 +28°C° 0.1 mm 2 mps 710 mmHg 19%
    16:00 +28°C° 0.1 mm 2 mps 709 mmHg 20%
    17:00 +28°C° 0.1 mm 2 mps 709 mmHg 22%
    18:00 +27°C° 0 mm 2 mps 709 mmHg 28%
    19:00 +25°C° 0 mm 2 mps 710 mmHg 34%
    20:00 +24°C° 0 mm 2 mps 710 mmHg 40%
    21:00 +23°C° 0 mm 2 mps 710 mmHg 42%
    22:00 +23°C° 0 mm 1 mps 711 mmHg 44%
    23:00 +23°C° 0 mm 1 mps 711 mmHg 46%

    5 April, Sunday

    Time Temperature Precipitation Wind Pressure Humidity
    00:00 +22°C° 0 mm 1 mps 710 mmHg 48%
    01:00 +19°C° 0 mm 0 mps 710 mmHg 49%
    02:00 +19°C° 0 mm 0 mps 710 mmHg 51%
    03:00 +19°C° 0 mm 0 mps 710 mmHg 51%
    04:00 +18°C° 0 mm 0 mps 710 mmHg 51%
    05:00 +18°C° 0 mm 0 mps 710 mmHg 51%
    06:00 +21°C° 0 mm 1 mps 710 mmHg 46%
    07:00 +23°C° 0 mm 1 mps 710 mmHg 40%
    08:00 +24°C° 0 mm 1 mps 711 mmHg 35%
    09:00 +25°C° 0 mm 1 mps 711 mmHg 33%
    10:00 +26°C° 0 mm 1 mps 711 mmHg 30%
    11:00 +27°C° 0 mm 1 mps 711 mmHg 28%
    12:00 +28°C° 0 mm 1 mps 711 mmHg 26%
    13:00 +29°C° 0 mm 1 mps 711 mmHg 24%
    14:00 +29°C° 0 mm 1 mps 710 mmHg 22%
    15:00 +29°C° 0 mm 1 mps 710 mmHg 23%
    16:00 +29°C° 0 mm 1 mps 710 mmHg 23%
    17:00 +29°C° 0 mm 2 mps 709 mmHg 23%
    18:00 +28°C° 0 mm 1 mps 710 mmHg 29%
    19:00 +27°C° 0 mm 1 mps 710 mmHg 35%
    20:00 +26°C° 0 mm 1 mps 710 mmHg 41%
    21:00 +25°C° 0 mm 1 mps 710 mmHg 42%
    22:00 +25°C° 0 mm 1 mps 710 mmHg 42%
    23:00 +24°C° 0 mm 1 mps 711 mmHg 43%

    6 April, Monday

    Time Temperature Precipitation Wind Pressure Humidity
    00:00 +24°C° 0 mm 1 mps 710 mmHg 44%
    01:00 +23°C° 0 mm 1 mps 710 mmHg 45%
    02:00 +22°C° 0 mm 1 mps 710 mmHg 46%
    03:00 +22°C° 0 mm 1 mps 710 mmHg 46%
    04:00 +20°C° 0 mm 0 mps 709 mmHg 47%
    05:00 +19°C° 0 mm 0 mps 709 mmHg 48%
    06:00 +22°C° 0 mm 1 mps 709 mmHg 45%
    07:00 +23°C° 0 mm 1 mps 710 mmHg 42%
    08:00 +24°C° 0 mm 2 mps 710 mmHg 38%
    09:00 +24°C° 0 mm 2 mps 710 mmHg 37%
    10:00 +25°C° 0 mm 2 mps 710 mmHg 36%
    11:00 +26°C° 0 mm 2 mps 710 mmHg 35%
    12:00 +24°C° 0.7 mm 2 mps 710 mmHg 45%
    13:00 +21°C° 0.7 mm 3 mps 710 mmHg 55%
    14:00 +19°C° 0.7 mm 3 mps 709 mmHg 66%
    15:00 +19°C° 1.8 mm 3 mps 709 mmHg 69%
    16:00 +18°C° 1.8 mm 3 mps 709 mmHg 72%
    17:00 +17°C° 1.8 mm 3 mps 709 mmHg 75%
    18:00 +17°C° 0.5 mm 3 mps 709 mmHg 75%
    19:00 +17°C° 0.5 mm 3 mps 709 mmHg 75%
    20:00 +17°C° 0.5 mm 2 mps 710 mmHg 75%
    21:00 +17°C° 0.1 mm 2 mps 710 mmHg 74%
    22:00 +17°C° 0.1 mm 2 mps 710 mmHg 72%
    23:00 +18°C° 0.1 mm 1 mps 710 mmHg 71%
    Show more